Ohio State University, OH

6:00 PM EDT on March 25, 2017 (GMT -0400)
Ohio State University

Weather History for KOSU - October, 2011

Change the Weather History Date:

Thursday, October 27, 2011

  Actual Average Record
Temperature  
Mean Temperature 44 °F -  
Max Temperature 50 °F 58 °F 79 °F (2014)
Min Temperature 37 °F 39 °F 28 °F (2013)
Degree Days  
Heating Degree Days 22    
Moisture  
Dew Point 42 °F    
Average Humidity 92    
Maximum Humidity 96    
Minimum Humidity 82    
Precipitation  
Precipitation 0.09 in - - ()
Sea Level Pressure  
Sea Level Pressure 29.89 in    
Wind  
Wind Speed 9 mph (NNW)    
Max Wind Speed 15 mph    
Max Gust Speed 23 mph    
Visibility 8 miles    
Events Rain    
Averages and records for this station are not official NWS values.
T = Trace of Precipitation, MM = Missing Value Source: NWS Daily Summary

Daily Weather History Graph

Daily Weather History Graph

Search for Another Location

Airport or City:

Trip Planner

Search our weather history database for the weather conditions in past years. The results will help you decide how hot, cold, wet, or windy it might be!

Date:

Astronomy

Oct. 27, 2011 Rise Set
Actual Time 7:55 AM EDT 6:36 PM EDT
Civil Twilight 7:27 AM EDT 7:04 PM EDT
Nautical Twilight 6:55 AM EDT 7:35 PM EDT
Astronomical Twilight 6:24 AM EDT 8:07 PM EDT
Moon 8:57 AM EDT (10/27) 7:04 PM EDT (10/27)
Length of Visible Light 11h 36m
Length of Day
10h 40m
New Moon, 1% of the Moon is Illuminated
Oct 27
New Moon
Nov 2
First Quarter
Nov 10
Full
Nov 18
Last Quarter
Nov 25
New

Hourly Weather History & Observations

Time (EDT) Temp. Windchill Dew Point Humidity Pressure Visibility Wind Dir Wind Speed Gust Speed Precip Events Conditions
12:43 AM 50.0 °F - 48.2 °F 94% 29.79 in 10.0 mi North 8.1 mph - 0.00 in Rain Light Rain
12:53 AM 50.0 °F - 48.9 °F 96% 29.78 in 9.0 mi North 9.2 mph - 0.00 in   Overcast
1:37 AM 50.0 °F - 46.4 °F 87% 29.79 in 10.0 mi North 10.4 mph - N/A   Overcast
2:00 AM 50.0 °F - 48.2 °F 94% 29.79 in 10.0 mi NNW 5.8 mph - N/A   Overcast
2:10 AM 50.0 °F - 46.4 °F 87% 29.79 in 10.0 mi North 9.2 mph - 0.00 in Rain Light Rain
2:53 AM 48.9 °F - 46.9 °F 93% 29.78 in 10.0 mi North 10.4 mph - 0.00 in   Overcast
4:53 AM 48.0 °F - 46.9 °F 96% 29.78 in 10.0 mi North 8.1 mph - 0.00 in   Overcast
5:53 AM 48.0 °F - 46.0 °F 93% 29.79 in 9.0 mi North 9.2 mph - N/A   Overcast
6:49 AM 48.2 °F - 44.6 °F 87% 29.79 in 10.0 mi North 10.4 mph - 0.00 in   Overcast
6:53 AM 48.0 °F - 45.0 °F 89% 29.78 in 10.0 mi North 6.9 mph 16.1 mph 0.00 in   Overcast
7:53 AM 46.9 °F - 45.0 °F 93% 29.80 in 8.0 mi North 11.5 mph - N/A   Overcast
8:08 AM 46.4 °F 41.5 °F 44.6 °F 93% 29.80 in 6.0 mi North 10.4 mph - 0.00 in Rain Light Rain
8:40 AM 46.4 °F 41.1 °F 44.6 °F 93% 29.80 in 2.0 mi North 11.5 mph - 0.01 in   Overcast
8:53 AM 46.0 °F 41.0 °F 45.0 °F 96% 29.80 in 2.5 mi NNW 10.4 mph - 0.01 in Rain Light Rain
8:58 AM 46.4 °F 41.9 °F 44.6 °F 93% 29.80 in 3.0 mi North 9.2 mph - 0.00 in Rain Light Rain
9:15 AM 46.4 °F 41.9 °F 44.6 °F 93% 29.81 in 4.0 mi North 9.2 mph - 0.00 in Rain Light Rain
9:44 AM 46.4 °F 41.9 °F 44.6 °F 93% 29.81 in 3.0 mi North 9.2 mph - 0.00 in Rain Light Rain
9:53 AM 46.0 °F 40.6 °F 44.1 °F 93% 29.81 in 3.0 mi NNW 11.5 mph - 0.00 in Rain Light Rain
10:53 AM 45.0 °F 38.2 °F 43.0 °F 93% 29.85 in 2.5 mi NNW 15.0 mph 21.9 mph 0.01 in Rain Light Rain
11:04 AM 44.6 °F 38.4 °F 42.8 °F 93% 29.85 in 3.0 mi NNW 12.7 mph - 0.00 in Rain Light Rain
11:48 AM 44.6 °F 37.8 °F 42.8 °F 93% 29.87 in 5.0 mi NNW 15.0 mph 23.0 mph 0.04 in Rain Rain
11:53 AM 44.1 °F 37.4 °F 42.1 °F 93% 29.88 in 6.0 mi NNW 13.8 mph 20.7 mph 0.05 in Rain Light Rain
12:53 PM 44.1 °F 37.4 °F 41.0 °F 89% 29.88 in 10.0 mi North 13.8 mph - 0.01 in Rain Light Rain
1:14 PM 42.8 °F 36.6 °F 41.0 °F 93% 29.88 in 10.0 mi NNW 11.5 mph - 0.00 in Rain Light Rain
1:33 PM 42.8 °F 35.4 °F 39.2 °F 87% 29.88 in 10.0 mi North 15.0 mph - 0.00 in Rain Light Rain
1:53 PM 43.0 °F 36.8 °F 39.9 °F 89% 29.89 in 10.0 mi NNW 11.5 mph - 0.00 in Rain Light Rain
2:53 PM 43.0 °F 36.4 °F 39.0 °F 86% 29.93 in 10.0 mi NNW 12.7 mph - 0.00 in   Overcast
3:53 PM 43.0 °F 36.4 °F 39.0 °F 86% 29.96 in 10.0 mi North 12.7 mph - 0.00 in Rain Light Rain
4:53 PM 44.1 °F 38.6 °F 39.0 °F 82% 29.98 in 10.0 mi North 10.4 mph - 0.00 in   Mostly Cloudy
5:53 PM 42.1 °F 36.1 °F 37.9 °F 85% 30.02 in 7.0 mi NNW 10.4 mph 23.0 mph 0.01 in Rain Light Rain
6:36 PM 41.0 °F 38.0 °F 37.4 °F 87% 30.03 in 10.0 mi NNW 4.6 mph - 0.00 in   Mostly Cloudy
6:53 PM 39.0 °F 36.8 °F 37.0 °F 93% 30.06 in 10.0 mi NW 3.5 mph - 0.00 in   Mostly Cloudy
7:53 PM 39.0 °F 36.8 °F 37.0 °F 93% 30.10 in 10.0 mi NNW 3.5 mph - N/A   Partly Cloudy
8:53 PM 37.9 °F 35.5 °F 36.0 °F 93% 30.12 in 10.0 mi NNW 3.5 mph - N/A   Scattered Clouds
9:53 PM 37.0 °F 32.4 °F 36.0 °F 96% 30.13 in 10.0 mi NNE 5.8 mph - N/A   Clear
10:53 PM 37.0 °F 33.3 °F 36.0 °F 96% 30.15 in 10.0 mi SSW 4.6 mph - 0.00 in   Clear
11:53 PM 37.0 °F 34.5 °F 36.0 °F 96% 30.16 in 8.0 mi WSW 3.5 mph - 0.00 in   Clear